Home > Time Zones > World Clock > Weather > Iran > Ahvaz > Past weeks

Flag for Iran Weather past 2 weeks in Ahvaz, Iran

Now
66 °F

Clear.


Feels Like: 66 °F
Forecast: 58 / 84 °F
Wind: 9 mph from Northwest

Location: Ahwaz

Current Time: Mar 31, 2015 at 6:45:17 AM

Latest Report: Mar 31, 2015 at 5:30 AM


Visibility: 5 mi

Pressure: 29.77 "Hg

Humidity: 64%

Dew point: 54 °F

Location of AhvazLocation

Historic Weather in Ahvaz — Graph

°F

Ahvaz temperature yesterday

Maximum temperature yesterday: 88 °F (at 2:30 PM)
Minimum temperature yesterday: 66 °F (at 2:30 AM)
Average temperature yesterday: 76 °F

Past Weeks' High & Low Weather Summary

 TemperatureHumidityPressure
High88 °F (Mar 30, 2:30 PM)100% (Mar 19, 4:30 AM)30.12 "Hg (Mar 19, 4:30 AM)
Low48 °F (Mar 23, 5:30 AM)22% (Mar 30, 3:30 PM)29.68 "Hg (Mar 30, 3:00 PM)
Average70 °F61%29.94 "Hg
* Reported Mar 16 4:30 AM — Mar 31 5:30 AM, Ahvaz, Weather by CustomWeather, © 2015

Note: Actual official high and low records may vary slightly from our data, if they occured in-between our weather recording intervals... More about our weather records

Advertising

Ahvaz weather history for previous 24 hours

 ConditionsComfort  
Time TempWeatherWind HumidityBarometerVisibility
5:30 AM
Tue, Mar 31
66 °FClear.9 mph64%29.77 "Hg5 mi
4:30 AM66 °FClear.12 mph64%29.77 "Hg5 mi
3:30 AM68 °FClear.9 mph69%29.77 "Hg4 mi
2:30 AM70 °FClear.12 mph64%29.77 "Hg4 mi
1:30 AM72 °FClear.14 mph61%29.77 "Hg4 mi
12:30 AM72 °FClear.7 mph69%29.77 "Hg4 mi
11:30 PM
Mon, Mar 30
73 °FClear.No wind65%29.74 "Hg4 mi
10:30 PM73 °FClear.9 mph61%29.74 "Hg5 mi
10:00 PM75 °FClear.7 mph50%29.74 "Hg5 mi
9:30 PM75 °FClear.12 mph50%29.74 "Hg5 mi
9:00 PM75 °FBroken clouds.7 mph44%29.74 "Hg4 mi
8:30 PM77 °FBroken clouds.12 mph42%29.71 "Hg4 mi
8:00 PM79 °FBroken clouds.7 mph34%29.71 "HgN/A
7:30 PM81 °FBroken clouds.5 mph32%29.71 "HgN/A
7:00 PM81 °FMore clouds than sun.5 mph28%29.71 "HgN/A
6:30 PM81 °FMore clouds than sun.5 mph28%29.71 "HgN/A
6:00 PM81 °FMore clouds than sun.9 mph28%29.68 "HgN/A
5:30 PM82 °FMore clouds than sun.16 mph26%29.68 "HgN/A
5:00 PM86 °FCloudy.7 mph22%29.68 "HgN/A
4:30 PM86 °FCloudy.14 mph22%29.68 "HgN/A
4:00 PM88 °FCloudy.12 mph22%29.68 "Hg5 mi
3:30 PM88 °FCloudy.14 mph22%29.68 "Hg4 mi
3:00 PM86 °FCloudy.16 mph25%29.68 "Hg4 mi
2:30 PM88 °FCloudy.18 mph24%29.71 "Hg4 mi
2:00 PM86 °FCloudy.14 mph31%29.74 "Hg4 mi
1:30 PM84 °FCloudy.14 mph35%29.74 "HgN/A
1:00 PM82 °FBroken clouds.14 mph42%29.74 "HgN/A
12:30 PM81 °FBroken clouds.16 mph45%29.74 "HgN/A
12:00 PM79 °FMore clouds than sun.9 mph48%29.77 "HgN/A
11:30 AM77 °FMore clouds than sun.7 mph51%29.77 "HgN/A
11:00 AM75 °FMore clouds than sun.7 mph57%29.80 "HgN/A
10:30 AM72 °FCloudy.7 mph65%29.80 "HgN/A
10:00 AM70 °FBroken clouds.7 mph64%29.80 "HgN/A
9:30 AM68 °FMore clouds than sun.7 mph69%29.80 "HgN/A
8:30 AM66 °FOvercast.7 mph73%29.80 "HgN/A
8:00 AM66 °FMostly cloudy.7 mph68%29.83 "HgN/A
7:30 AM66 °FPassing clouds.9 mph68%29.83 "Hg4 mi
6:30 AM66 °FRain. Mostly cloudy.9 mph83%29.86 "Hg4 mi
Weather by CustomWeather, © 2015

See weather overviewHow to use our weather pages